Year,Month,Day,Hour,Minute,Value (Times are PST for temperature in C)
2016,08,19,00,00,23.90
2016,08,19,00,01,23.90
2016,08,19,00,02,23.90
2016,08,19,00,03,23.90
2016,08,19,00,04,23.90
2016,08,19,00,05,23.90
2016,08,19,00,07,23.90
2016,08,19,00,08,23.90
2016,08,19,00,09,23.90
2016,08,19,00,10,23.80
2016,08,19,00,12,23.80
2016,08,19,00,13,23.80
2016,08,19,00,14,23.80
2016,08,19,00,15,23.80
2016,08,19,00,16,23.80
2016,08,19,00,17,23.80
2016,08,19,00,18,23.80
2016,08,19,00,19,23.90
2016,08,19,00,20,23.90
2016,08,19,00,21,23.90
2016,08,19,00,22,24.00
2016,08,19,00,23,24.00
2016,08,19,00,24,24.00
2016,08,19,00,25,24.10
2016,08,19,00,26,24.10
2016,08,19,00,27,24.20
2016,08,19,00,28,24.20
2016,08,19,00,29,24.20
2016,08,19,00,30,24.20
2016,08,19,00,31,24.20
2016,08,19,00,32,24.20
2016,08,19,00,33,24.10
2016,08,19,00,34,24.10
2016,08,19,00,35,24.10
2016,08,19,00,36,24.20
2016,08,19,00,37,24.20
2016,08,19,00,38,24.30
2016,08,19,00,39,24.30
2016,08,19,00,40,24.30
2016,08,19,00,41,24.20
2016,08,19,00,42,24.20
2016,08,19,00,43,24.20
2016,08,19,00,44,24.10
2016,08,19,00,46,24.00
2016,08,19,00,47,24.00
2016,08,19,00,48,23.90
2016,08,19,00,49,23.90
2016,08,19,00,50,23.80
2016,08,19,00,51,23.70
2016,08,19,00,52,23.70
2016,08,19,00,53,23.60
2016,08,19,00,54,23.60
2016,08,19,00,55,23.60
2016,08,19,00,56,23.70
2016,08,19,00,58,23.80
2016,08,19,00,59,23.90
2016,08,19,01,00,23.90
2016,08,19,01,01,23.90
2016,08,19,01,02,23.90
2016,08,19,01,03,23.90
2016,08,19,01,04,23.90
2016,08,19,01,05,23.90
2016,08,19,01,06,23.90
2016,08,19,01,07,23.90
2016,08,19,01,08,23.90
2016,08,19,01,10,23.80
2016,08,19,01,11,23.80
2016,08,19,01,12,23.90
2016,08,19,01,13,23.90
2016,08,19,01,14,23.90
2016,08,19,01,15,23.90
2016,08,19,01,17,23.90
2016,08,19,01,18,24.00
2016,08,19,01,19,24.00
2016,08,19,01,20,24.00
2016,08,19,01,21,24.00
2016,08,19,01,22,24.00
2016,08,19,01,23,24.00
2016,08,19,01,24,24.00
2016,08,19,01,25,24.00
2016,08,19,01,26,24.00
2016,08,19,01,27,24.00
2016,08,19,01,28,24.00
2016,08,19,01,29,24.00
2016,08,19,01,30,24.00
2016,08,19,01,31,24.00
2016,08,19,01,32,24.00
2016,08,19,01,33,23.90
2016,08,19,01,34,24.00
2016,08,19,01,35,24.00
2016,08,19,01,36,24.00
2016,08,19,01,37,24.00
2016,08,19,01,38,24.10
2016,08,19,01,39,24.10
2016,08,19,01,40,24.10
2016,08,19,01,41,24.10
2016,08,19,01,42,24.10
2016,08,19,01,43,24.10
2016,08,19,01,44,24.10
2016,08,19,01,45,24.10
2016,08,19,01,46,24.10
2016,08,19,01,47,24.00
2016,08,19,01,48,24.00
2016,08,19,01,49,24.00
2016,08,19,01,50,24.00
2016,08,19,01,51,24.00
2016,08,19,01,52,24.00
2016,08,19,01,53,24.00
2016,08,19,01,54,23.90
2016,08,19,01,55,23.90
2016,08,19,01,56,23.90
2016,08,19,01,57,23.90
2016,08,19,01,58,23.90
2016,08,19,01,59,23.90
2016,08,19,02,00,23.90
2016,08,19,02,01,23.90
2016,08,19,02,02,23.90
2016,08,19,02,03,23.90
2016,08,19,02,04,23.90
2016,08,19,02,05,23.80
2016,08,19,02,06,23.80
2016,08,19,02,07,23.80
2016,08,19,02,08,23.80
2016,08,19,02,09,23.70
2016,08,19,02,10,23.70
2016,08,19,02,11,23.70
2016,08,19,02,12,23.70
2016,08,19,02,13,23.60
2016,08,19,02,14,23.60
2016,08,19,02,15,23.60
2016,08,19,02,16,23.60
2016,08,19,02,17,23.50
2016,08,19,02,18,23.50
2016,08,19,02,19,23.50
2016,08,19,02,20,23.50
2016,08,19,02,21,23.40
2016,08,19,02,22,23.40
2016,08,19,02,23,23.40
2016,08,19,02,24,23.30
2016,08,19,02,25,23.30
2016,08,19,02,26,23.30
2016,08,19,02,27,23.30
2016,08,19,02,28,23.30
2016,08,19,02,29,23.20
2016,08,19,02,30,23.20
2016,08,19,02,31,23.20
2016,08,19,02,32,23.10
2016,08,19,02,33,23.10
2016,08,19,02,34,23.10
2016,08,19,02,35,23.10
2016,08,19,02,36,23.10
2016,08,19,02,37,23.10
2016,08,19,02,38,23.10
2016,08,19,02,39,23.10
2016,08,19,02,40,23.10
2016,08,19,02,41,23.00
2016,08,19,02,42,23.00
2016,08,19,02,43,23.00
2016,08,19,02,44,23.00
2016,08,19,02,45,23.00
2016,08,19,02,46,23.00
2016,08,19,02,47,23.00
2016,08,19,02,48,23.00
2016,08,19,02,49,23.00
2016,08,19,02,50,23.00
2016,08,19,02,51,23.00
2016,08,19,02,52,23.00
2016,08,19,02,53,23.00
2016,08,19,02,54,23.00
2016,08,19,02,55,23.00
2016,08,19,02,56,23.00
2016,08,19,02,57,22.90
2016,08,19,02,58,22.90
2016,08,19,02,59,22.90
2016,08,19,03,00,22.90
2016,08,19,03,01,22.80
2016,08,19,03,02,22.80
2016,08,19,03,03,22.80
2016,08,19,03,04,22.80
2016,08,19,03,05,22.80
2016,08,19,03,06,22.80
2016,08,19,03,07,22.80
2016,08,19,03,08,22.80
2016,08,19,03,09,22.80
2016,08,19,03,10,22.80
2016,08,19,03,11,22.80
2016,08,19,03,12,22.80
2016,08,19,03,13,22.80
2016,08,19,03,14,22.80
2016,08,19,03,15,22.80
2016,08,19,03,16,22.80
2016,08,19,03,17,22.70
2016,08,19,03,18,22.70
2016,08,19,03,19,22.70
2016,08,19,03,20,22.70
2016,08,19,03,21,22.70
2016,08,19,03,22,22.70
2016,08,19,03,23,22.70
2016,08,19,03,24,22.70
2016,08,19,03,25,22.70
2016,08,19,03,26,22.60
2016,08,19,03,27,22.60
2016,08,19,03,28,22.60
2016,08,19,03,29,22.60
2016,08,19,03,30,22.60
2016,08,19,03,31,22.60
2016,08,19,03,32,22.40
2016,08,19,03,33,22.40
2016,08,19,03,34,22.40
2016,08,19,03,35,22.40
2016,08,19,03,36,22.40
2016,08,19,03,37,22.30
2016,08,19,03,39,22.30
2016,08,19,03,40,22.30
2016,08,19,03,41,22.30
2016,08,19,03,42,22.30
2016,08,19,03,44,22.30
2016,08,19,03,46,22.30
2016,08,19,03,47,22.30
2016,08,19,03,49,22.30
2016,08,19,03,51,22.20
2016,08,19,03,52,22.20
2016,08,19,03,53,22.20
2016,08,19,03,54,22.20
2016,08,19,03,56,22.20
2016,08,19,03,58,22.20
2016,08,19,03,59,22.20
2016,08,19,04,01,22.20
2016,08,19,04,03,22.20
2016,08,19,04,04,22.20
2016,08,19,04,05,22.20
2016,08,19,04,06,22.20
2016,08,19,04,08,22.20
2016,08,19,04,10,22.10
2016,08,19,04,11,22.10
2016,08,19,04,13,22.10
2016,08,19,04,15,22.10
2016,08,19,04,16,22.10
2016,08,19,04,17,22.10
2016,08,19,04,18,22.10
2016,08,19,04,20,22.00
2016,08,19,04,22,22.00
2016,08,19,04,23,22.00
2016,08,19,04,25,21.90
2016,08,19,04,27,21.90
2016,08,19,04,28,21.90
2016,08,19,04,29,21.90
2016,08,19,04,30,21.80
2016,08,19,04,32,21.80
2016,08,19,04,34,21.70
2016,08,19,04,35,21.70
2016,08,19,04,37,21.70
2016,08,19,04,39,21.60
2016,08,19,04,40,21.60
2016,08,19,04,41,21.60
2016,08,19,04,42,21.60
2016,08,19,04,43,21.50
2016,08,19,04,44,21.50
2016,08,19,04,46,21.50
2016,08,19,04,47,21.50
2016,08,19,04,48,21.50
2016,08,19,04,49,21.50
2016,08,19,04,50,21.50
2016,08,19,04,51,21.50
2016,08,19,04,52,21.50
2016,08,19,04,53,21.50
2016,08,19,04,55,21.60
2016,08,19,04,56,21.60
2016,08,19,04,57,21.60
2016,08,19,04,58,21.60
2016,08,19,04,59,21.50
2016,08,19,05,00,21.50
2016,08,19,05,02,21.50
2016,08,19,05,03,21.50
2016,08,19,05,04,21.50
2016,08,19,05,05,21.50
2016,08,19,05,07,21.50
2016,08,19,05,08,21.50
2016,08,19,05,09,21.50
2016,08,19,05,10,21.50
2016,08,19,05,11,21.50
2016,08,19,05,12,21.50
2016,08,19,05,14,21.50
2016,08,19,05,15,21.50
2016,08,19,05,16,21.40
2016,08,19,05,17,21.40
2016,08,19,05,19,21.40
2016,08,19,05,20,21.40
2016,08,19,05,21,21.40
2016,08,19,05,22,21.40
2016,08,19,05,24,21.40
2016,08,19,05,25,21.40
2016,08,19,05,26,21.40
2016,08,19,05,27,21.40
2016,08,19,05,28,21.40
2016,08,19,05,29,21.40
2016,08,19,05,30,21.40
2016,08,19,05,31,21.40
2016,08,19,05,32,21.40
2016,08,19,05,33,21.40
2016,08,19,05,34,21.40
2016,08,19,05,36,21.40
2016,08,19,05,37,21.30
2016,08,19,05,38,21.30
2016,08,19,05,39,21.30
2016,08,19,05,40,21.30
2016,08,19,05,41,21.30
2016,08,19,05,42,21.20
2016,08,19,05,43,21.20
2016,08,19,05,44,21.20
2016,08,19,05,45,21.10
2016,08,19,05,46,21.10
2016,08,19,05,48,21.10
2016,08,19,05,49,21.10
2016,08,19,05,50,21.10
2016,08,19,05,51,20.90
2016,08,19,05,52,20.90
2016,08,19,05,53,20.90
2016,08,19,05,54,20.80
2016,08,19,05,55,20.80
2016,08,19,05,56,20.80
2016,08,19,05,57,20.80
2016,08,19,05,58,20.80
2016,08,19,06,00,20.80
2016,08,19,06,01,20.80
2016,08,19,06,02,20.80
2016,08,19,06,03,20.80
2016,08,19,06,05,20.80
2016,08,19,06,06,20.80
2016,08,19,06,07,20.80
2016,08,19,06,08,20.80
2016,08,19,06,10,20.80
2016,08,19,06,11,20.80
2016,08,19,06,12,20.80
2016,08,19,06,13,20.80
2016,08,19,06,15,20.80
2016,08,19,06,16,20.80
2016,08,19,06,17,20.80
2016,08,19,06,18,20.80
2016,08,19,06,20,20.80
2016,08,19,06,21,20.80
2016,08,19,06,22,20.80
2016,08,19,06,23,20.70
2016,08,19,06,24,20.70
2016,08,19,06,25,20.70
2016,08,19,06,26,20.70
2016,08,19,06,27,20.70
2016,08,19,06,28,20.70
2016,08,19,06,30,20.70
2016,08,19,06,31,20.70
2016,08,19,06,32,20.60
2016,08,19,06,33,20.60
2016,08,19,06,34,20.60
2016,08,19,06,35,20.60
2016,08,19,06,37,20.60
2016,08,19,06,38,20.60
2016,08,19,06,39,20.70
2016,08,19,06,40,20.70
2016,08,19,06,42,20.70
2016,08,19,06,43,20.80
2016,08,19,06,44,20.80
2016,08,19,06,45,20.80
2016,08,19,06,47,20.80
2016,08,19,06,48,20.80
2016,08,19,06,49,20.80
2016,08,19,06,50,20.90
2016,08,19,06,52,20.90
2016,08,19,06,53,20.90
2016,08,19,06,54,21.10
2016,08,19,06,55,21.10
2016,08,19,06,56,21.10
2016,08,19,06,57,21.10
2016,08,19,06,58,21.10
2016,08,19,06,59,21.10
2016,08,19,07,00,21.10
2016,08,19,07,01,21.10
2016,08,19,07,02,21.10
2016,08,19,07,03,21.10
2016,08,19,07,04,21.10
2016,08,19,07,05,21.10
2016,08,19,07,06,21.10
2016,08,19,07,07,21.10
2016,08,19,07,08,21.10
2016,08,19,07,09,20.90
2016,08,19,07,10,20.90
2016,08,19,07,11,20.90
2016,08,19,07,12,20.90
2016,08,19,07,13,20.80
2016,08,19,07,14,20.80
2016,08,19,07,15,20.80
2016,08,19,07,16,20.80
2016,08,19,07,17,20.80
2016,08,19,07,18,20.80
2016,08,19,07,19,20.80
2016,08,19,07,20,20.80
2016,08,19,07,21,20.80
2016,08,19,07,22,20.80
2016,08,19,07,23,20.80
2016,08,19,07,24,20.80
2016,08,19,07,25,20.80
2016,08,19,07,26,20.70
2016,08,19,07,27,20.70
2016,08,19,07,28,20.70
2016,08,19,07,29,20.80
2016,08,19,07,30,20.80
2016,08,19,07,31,20.80
2016,08,19,07,32,20.80
2016,08,19,07,33,20.80
2016,08,19,07,34,20.80
2016,08,19,07,35,20.80
2016,08,19,07,36,20.80
2016,08,19,07,37,20.90
2016,08,19,07,38,20.90
2016,08,19,07,39,20.90
2016,08,19,07,40,20.90
2016,08,19,07,41,20.90
2016,08,19,07,42,20.90
2016,08,19,07,43,20.80
2016,08,19,07,44,20.80
2016,08,19,07,45,20.80
2016,08,19,07,46,20.80
2016,08,19,07,47,20.80
2016,08,19,07,48,20.80
2016,08,19,07,50,20.80
2016,08,19,07,51,20.70
2016,08,19,07,52,20.70
2016,08,19,07,53,20.70
2016,08,19,07,54,20.60
2016,08,19,07,55,20.60
2016,08,19,07,56,20.60
2016,08,19,07,57,20.50
2016,08,19,07,58,20.50
2016,08,19,07,59,20.50
2016,08,19,08,00,20.50
2016,08,19,08,01,20.40
2016,08,19,08,02,20.40
2016,08,19,08,03,20.40
2016,08,19,08,04,20.50
2016,08,19,08,05,20.50
2016,08,19,08,06,20.60
2016,08,19,08,07,20.70
2016,08,19,08,08,20.70
2016,08,19,08,09,20.80
2016,08,19,08,10,20.80
2016,08,19,08,11,20.80
2016,08,19,08,12,20.80
2016,08,19,08,13,20.90
2016,08,19,08,14,21.10
2016,08,19,08,15,21.10
2016,08,19,08,16,21.20
2016,08,19,08,17,21.30
2016,08,19,08,18,21.30
2016,08,19,08,19,21.30
2016,08,19,08,20,21.30
2016,08,19,08,21,21.30
2016,08,19,08,22,21.30
2016,08,19,08,23,21.20
2016,08,19,08,24,21.20
2016,08,19,08,25,21.20
2016,08,19,08,26,21.10
2016,08,19,08,27,21.10
2016,08,19,08,28,21.10
2016,08,19,08,29,21.10
2016,08,19,08,30,21.10
2016,08,19,08,31,20.90
2016,08,19,08,32,20.90
2016,08,19,08,33,20.90
2016,08,19,08,34,20.90
2016,08,19,08,35,20.90
2016,08,19,08,36,20.90
2016,08,19,08,37,20.90
2016,08,19,08,38,20.90
2016,08,19,08,39,20.90
2016,08,19,08,40,20.90
2016,08,19,08,41,20.90
2016,08,19,08,42,20.90
2016,08,19,08,43,20.90
2016,08,19,08,44,20.90
2016,08,19,08,45,20.90
2016,08,19,08,46,20.90
2016,08,19,08,47,20.90
2016,08,19,08,48,20.90
2016,08,19,08,49,21.10
2016,08,19,08,50,21.10
2016,08,19,08,51,21.10
2016,08,19,08,52,21.10
2016,08,19,08,53,21.10
2016,08,19,08,54,21.10
2016,08,19,08,55,21.20
2016,08,19,08,56,21.20
2016,08,19,08,57,21.30
2016,08,19,08,58,21.30
2016,08,19,08,59,21.30
2016,08,19,09,00,21.30
2016,08,19,09,01,21.40
2016,08,19,09,02,21.40
2016,08,19,09,03,21.40
2016,08,19,09,04,21.40
2016,08,19,09,05,21.40
2016,08,19,09,06,21.40
2016,08,19,09,07,21.40
2016,08,19,09,08,21.40
2016,08,19,09,09,21.40
2016,08,19,09,10,21.40
2016,08,19,09,11,21.40
2016,08,19,09,12,21.40
2016,08,19,09,13,21.40
2016,08,19,09,15,21.40
2016,08,19,09,17,21.40
2016,08,19,09,19,21.50
2016,08,19,09,20,21.50
2016,08,19,09,21,21.50
2016,08,19,09,22,21.50
2016,08,19,09,24,21.50
2016,08,19,09,26,21.50
2016,08,19,09,27,21.40
2016,08,19,09,28,21.40
2016,08,19,09,29,21.40
2016,08,19,09,31,21.40
2016,08,19,09,32,21.40
2016,08,19,09,33,21.40
2016,08,19,09,34,21.40
2016,08,19,09,36,21.40
2016,08,19,09,38,21.40
2016,08,19,09,39,21.40
2016,08,19,09,40,21.40
2016,08,19,09,41,21.40
2016,08,19,09,43,21.40
2016,08,19,09,44,21.40
2016,08,19,09,45,21.50
2016,08,19,09,46,21.50
2016,08,19,09,48,21.50
2016,08,19,09,50,21.50
2016,08,19,09,51,21.50
2016,08,19,09,53,21.50
2016,08,19,09,55,21.60
2016,08,19,09,56,21.60
2016,08,19,09,57,21.70
2016,08,19,09,58,21.70
2016,08,19,10,00,21.80
2016,08,19,10,02,21.90
2016,08,19,10,03,22.00
2016,08,19,10,04,22.00
2016,08,19,10,05,22.10
2016,08,19,10,07,22.20
2016,08,19,10,08,22.30
2016,08,19,10,09,22.30
2016,08,19,10,10,22.30
2016,08,19,10,12,22.30
2016,08,19,10,14,22.40
2016,08,19,10,15,22.40
2016,08,19,10,16,22.40
2016,08,19,10,17,22.40
2016,08,19,10,19,22.40
2016,08,19,10,20,22.40
2016,08,19,10,21,22.40
2016,08,19,10,22,22.40
2016,08,19,10,24,22.40
2016,08,19,10,26,22.30
2016,08,19,10,27,22.30
2016,08,19,10,28,22.30
2016,08,19,10,29,22.20
2016,08,19,10,31,22.00
2016,08,19,10,32,21.90
2016,08,19,10,33,21.90
2016,08,19,10,34,21.80
2016,08,19,10,36,21.80
2016,08,19,10,38,21.90
2016,08,19,10,39,21.90
2016,08,19,10,40,21.90
2016,08,19,10,41,22.00
2016,08,19,10,43,22.10
2016,08,19,10,44,22.20
2016,08,19,10,45,22.30
2016,08,19,10,46,22.30
2016,08,19,10,47,22.40
2016,08,19,10,48,22.40
2016,08,19,10,50,22.60
2016,08,19,10,51,22.60
2016,08,19,10,52,22.60
2016,08,19,10,53,22.70
2016,08,19,10,54,22.70
2016,08,19,10,55,22.70
2016,08,19,10,56,22.70
2016,08,19,10,57,22.70
2016,08,19,10,58,22.80
2016,08,19,10,59,22.80
2016,08,19,11,00,22.90
2016,08,19,11,02,22.90
2016,08,19,11,03,23.00
2016,08,19,11,04,23.00
2016,08,19,11,05,23.00
2016,08,19,11,06,23.00
2016,08,19,11,07,23.00
2016,08,19,11,08,23.00
2016,08,19,11,09,23.00
2016,08,19,11,10,23.00
2016,08,19,11,11,22.90
2016,08,19,11,12,22.90
2016,08,19,11,14,22.80
2016,08,19,11,15,22.80
2016,08,19,11,16,22.80
2016,08,19,11,17,22.80
2016,08,19,11,19,22.70
2016,08,19,11,20,22.70
2016,08,19,11,21,22.70
2016,08,19,11,22,22.80
2016,08,19,11,24,22.90
2016,08,19,11,25,22.90
2016,08,19,11,26,23.00
2016,08,19,11,27,23.00
2016,08,19,11,28,23.00
2016,08,19,11,29,23.10
2016,08,19,11,31,23.20
2016,08,19,11,32,23.20
2016,08,19,11,33,23.30
2016,08,19,11,34,23.30
2016,08,19,11,36,23.30
2016,08,19,11,37,23.30
2016,08,19,11,38,23.30
2016,08,19,11,39,23.30
2016,08,19,11,41,23.40
2016,08,19,11,42,23.40
2016,08,19,11,43,23.40
2016,08,19,11,44,23.40
2016,08,19,11,45,23.40
2016,08,19,11,46,23.40
2016,08,19,11,48,23.40
2016,08,19,11,49,23.50
2016,08,19,11,50,23.50
2016,08,19,11,51,23.40
2016,08,19,11,53,23.40
2016,08,19,11,54,23.40
2016,08,19,11,55,23.50
2016,08,19,11,56,23.50
2016,08,19,11,58,23.50
2016,08,19,11,59,23.60
2016,08,19,12,00,23.60
2016,08,19,12,01,23.60
2016,08,19,12,02,23.70
2016,08,19,12,03,23.70
2016,08,19,12,04,23.70
2016,08,19,12,05,23.70
2016,08,19,12,06,23.70
2016,08,19,12,07,23.70
2016,08,19,12,08,23.70
2016,08,19,12,09,23.80
2016,08,19,12,10,23.80
2016,08,19,12,11,23.80
2016,08,19,12,12,23.90
2016,08,19,12,13,23.90
2016,08,19,12,14,24.00
2016,08,19,12,15,24.00
2016,08,19,12,16,24.10
2016,08,19,12,17,24.10
2016,08,19,12,18,24.10
2016,08,19,12,19,24.20
2016,08,19,12,20,24.20
2016,08,19,12,21,24.20
2016,08,19,12,22,24.20
2016,08,19,12,23,24.20
2016,08,19,12,24,24.20
2016,08,19,12,25,24.20
2016,08,19,12,26,24.20
2016,08,19,12,27,24.20
2016,08,19,12,28,24.20
2016,08,19,12,29,24.30
2016,08,19,12,30,24.30
2016,08,19,12,31,24.30
2016,08,19,12,32,24.30
2016,08,19,12,34,24.40
2016,08,19,12,35,24.50
2016,08,19,12,36,24.50
2016,08,19,12,37,24.50
2016,08,19,12,38,24.50
2016,08,19,12,39,24.50
2016,08,19,12,40,24.50
2016,08,19,12,41,24.60
2016,08,19,12,42,24.60
2016,08,19,12,43,24.60
2016,08,19,12,44,24.70
2016,08,19,12,46,24.80
2016,08,19,12,47,24.80
2016,08,19,12,48,24.80
2016,08,19,12,49,24.90
2016,08,19,12,50,24.90
2016,08,19,12,51,24.90
2016,08,19,12,52,24.90
2016,08,19,12,53,25.10
2016,08,19,12,54,25.20
2016,08,19,12,55,25.20
2016,08,19,12,56,25.20
2016,08,19,12,58,25.10
2016,08,19,12,59,25.10
2016,08,19,13,00,25.20
2016,08,19,13,01,25.20
2016,08,19,13,02,25.20
2016,08,19,13,03,25.30
2016,08,19,13,04,25.30
2016,08,19,13,05,25.30
2016,08,19,13,06,25.40
2016,08,19,13,07,25.40
2016,08,19,13,08,25.30
2016,08,19,13,10,25.40
2016,08,19,13,11,25.40
2016,08,19,13,12,25.40
2016,08,19,13,13,25.40
2016,08,19,13,14,25.40
2016,08,19,13,15,25.40
2016,08,19,13,16,25.40
2016,08,19,13,17,25.40
2016,08,19,13,18,25.40
2016,08,19,13,19,25.60
2016,08,19,13,20,25.60
2016,08,19,13,21,25.60
2016,08,19,13,22,25.70
2016,08,19,13,23,25.70
2016,08,19,13,24,25.70
2016,08,19,13,25,25.70
2016,08,19,13,26,25.70
2016,08,19,13,27,25.80
2016,08,19,13,28,25.70
2016,08,19,13,29,25.70
2016,08,19,13,30,25.70
2016,08,19,13,31,25.70
2016,08,19,13,32,25.80
2016,08,19,13,33,25.90
2016,08,19,13,34,25.90
2016,08,19,13,35,25.90
2016,08,19,13,36,25.90
2016,08,19,13,37,25.90
2016,08,19,13,38,25.90
2016,08,19,13,39,26.10
2016,08,19,13,40,26.10
2016,08,19,13,41,26.20
2016,08,19,13,42,26.30
2016,08,19,13,43,26.40
2016,08,19,13,44,26.50
2016,08,19,13,45,26.50
2016,08,19,13,46,26.70
2016,08,19,13,47,26.80
2016,08,19,13,48,26.80
2016,08,19,13,49,26.90
2016,08,19,13,50,26.90
2016,08,19,13,51,27.10
2016,08,19,13,52,27.20
2016,08,19,13,53,27.30
2016,08,19,13,54,27.30
2016,08,19,13,55,27.40
2016,08,19,13,56,27.40
2016,08,19,13,57,27.50
2016,08,19,13,58,27.50
2016,08,19,13,59,27.50
2016,08,19,14,00,27.50
2016,08,19,14,01,27.40
2016,08,19,14,02,27.40
2016,08,19,14,03,27.30
2016,08,19,14,04,27.30
2016,08,19,14,05,27.20
2016,08,19,14,06,27.20
2016,08,19,14,07,27.20
2016,08,19,14,08,27.10
2016,08,19,14,09,27.10
2016,08,19,14,10,27.20
2016,08,19,14,11,27.20
2016,08,19,14,12,27.20
2016,08,19,14,13,27.10
2016,08,19,14,14,27.10
2016,08,19,14,15,27.10
2016,08,19,14,16,27.00
2016,08,19,14,17,27.00
2016,08,19,14,18,27.00
2016,08,19,14,19,27.00
2016,08,19,14,20,27.00
2016,08,19,14,21,27.00
2016,08,19,14,22,27.00
2016,08,19,14,23,27.10
2016,08,19,14,24,27.10
2016,08,19,14,25,27.00
2016,08,19,14,26,27.00
2016,08,19,14,27,27.00
2016,08,19,14,28,27.00
2016,08,19,14,29,27.00
2016,08,19,14,30,27.00
2016,08,19,14,31,26.90
2016,08,19,14,32,26.90
2016,08,19,14,33,26.90
2016,08,19,14,34,27.00
2016,08,19,14,35,27.00
2016,08,19,14,36,27.00
2016,08,19,14,37,27.10
2016,08,19,14,38,27.10
2016,08,19,14,39,27.10
2016,08,19,14,40,27.20
2016,08,19,14,41,27.20
2016,08,19,14,42,27.20
2016,08,19,14,43,27.30
2016,08,19,14,44,27.30
2016,08,19,14,45,27.40
2016,08,19,14,46,27.50
2016,08,19,14,47,27.60
2016,08,19,14,48,27.60
2016,08,19,14,49,27.70
2016,08,19,14,50,27.70
2016,08,19,14,51,27.90
2016,08,19,14,52,28.10
2016,08,19,14,53,28.20
2016,08,19,14,54,28.30
2016,08,19,14,55,28.30
2016,08,19,14,56,28.40
2016,08,19,14,57,28.50
2016,08,19,14,58,28.60
2016,08,19,14,59,28.70
2016,08,19,15,00,28.80
2016,08,19,15,01,28.80
2016,08,19,15,02,28.90
2016,08,19,15,03,28.90
2016,08,19,15,04,29.00
2016,08,19,15,05,29.00
2016,08,19,15,06,29.00
2016,08,19,15,07,28.90
2016,08,19,15,08,28.90
2016,08,19,15,09,28.90
2016,08,19,15,10,28.90
2016,08,19,15,11,28.90
2016,08,19,15,12,28.90
2016,08,19,15,13,28.90
2016,08,19,15,14,28.90
2016,08,19,15,15,29.00
2016,08,19,15,16,29.00
2016,08,19,15,17,29.10
2016,08,19,15,18,29.20
2016,08,19,15,19,29.20
2016,08,19,15,20,29.30
2016,08,19,15,21,29.30
2016,08,19,15,22,29.40
2016,08,19,15,23,29.40
2016,08,19,15,24,29.60
2016,08,19,15,25,29.70
2016,08,19,15,26,29.70
2016,08,19,15,27,29.70
2016,08,19,15,28,29.70
2016,08,19,15,29,29.70
2016,08,19,15,30,29.80
2016,08,19,15,31,29.70
2016,08,19,15,32,29.80
2016,08,19,15,33,29.80
2016,08,19,15,34,29.80
2016,08,19,15,35,29.80
2016,08,19,15,36,29.80
2016,08,19,15,37,29.80
2016,08,19,15,38,29.80
2016,08,19,15,39,29.80
2016,08,19,15,40,29.80
2016,08,19,15,41,29.80
2016,08,19,15,42,29.80
2016,08,19,15,43,29.80
2016,08,19,15,44,29.80
2016,08,19,15,45,29.80
2016,08,19,15,46,29.80
2016,08,19,15,47,29.90
2016,08,19,15,48,29.90
2016,08,19,15,49,29.80
2016,08,19,15,50,29.80
2016,08,19,15,51,29.80
2016,08,19,15,52,29.90
2016,08,19,15,53,29.90
2016,08,19,15,54,29.90
2016,08,19,15,55,29.90
2016,08,19,15,56,30.00
2016,08,19,15,57,30.00
2016,08,19,15,58,30.10
2016,08,19,15,59,30.10
2016,08,19,16,01,30.10
2016,08,19,16,02,30.10
2016,08,19,16,04,30.10
2016,08,19,16,05,30.10
2016,08,19,16,06,30.10
2016,08,19,16,07,30.20
2016,08,19,16,09,30.20
2016,08,19,16,11,30.20
2016,08,19,16,12,30.10
2016,08,19,16,14,30.10
2016,08,19,16,15,30.10
2016,08,19,16,16,30.10
2016,08,19,16,17,30.10
2016,08,19,16,18,30.20
2016,08,19,16,19,30.20
2016,08,19,16,21,30.20
2016,08,19,16,22,30.20
2016,08,19,16,23,30.10
2016,08,19,16,24,30.00
2016,08,19,16,26,29.90
2016,08,19,16,27,29.90
2016,08,19,16,28,29.80
2016,08,19,16,29,29.70
2016,08,19,16,30,29.70
2016,08,19,16,31,29.70
2016,08,19,16,33,29.60
2016,08,19,16,34,29.60
2016,08,19,16,35,29.60
2016,08,19,16,36,29.60
2016,08,19,16,38,29.60
2016,08,19,16,39,29.60
2016,08,19,16,40,29.60
2016,08,19,16,41,29.60
2016,08,19,16,43,29.60
2016,08,19,16,45,29.70
2016,08,19,16,46,29.70
2016,08,19,16,47,29.70
2016,08,19,16,48,29.70
2016,08,19,16,50,29.60
2016,08,19,16,51,29.60
2016,08,19,16,52,29.60
2016,08,19,16,53,29.40
2016,08,19,16,55,29.40
2016,08,19,16,57,29.30
2016,08,19,16,58,29.30
2016,08,19,16,59,29.30
2016,08,19,17,00,29.30
2016,08,19,17,02,29.20
2016,08,19,17,03,29.30
2016,08,19,17,04,29.30
2016,08,19,17,05,29.20
2016,08,19,17,07,29.20
2016,08,19,17,09,29.20
2016,08,19,17,10,29.10
2016,08,19,17,11,29.10
2016,08,19,17,12,29.10
2016,08,19,17,14,29.10
2016,08,19,17,15,29.10
2016,08,19,17,16,29.10
2016,08,19,17,17,29.10
2016,08,19,17,19,29.10
2016,08,19,17,21,29.10
2016,08,19,17,22,29.20
2016,08,19,17,23,29.20
2016,08,19,17,24,29.20
2016,08,19,17,26,29.20
2016,08,19,17,27,29.20
2016,08,19,17,28,29.20
2016,08,19,17,29,29.20
2016,08,19,17,31,29.20
2016,08,19,17,33,29.20
2016,08,19,17,34,29.20
2016,08,19,17,35,29.20
2016,08,19,17,36,29.20
2016,08,19,17,38,29.20
2016,08,19,17,39,29.20
2016,08,19,17,40,29.10
2016,08,19,17,41,29.10
2016,08,19,17,42,29.10
2016,08,19,17,43,29.10
2016,08,19,17,45,29.20
2016,08,19,17,46,29.20
2016,08,19,17,47,29.20
2016,08,19,17,48,29.20
2016,08,19,17,50,29.30
2016,08,19,17,51,29.30
2016,08,19,17,52,29.30
2016,08,19,17,53,29.30
2016,08,19,17,54,29.30
2016,08,19,17,55,29.30
2016,08,19,17,57,29.30
2016,08,19,17,58,29.20
2016,08,19,17,59,29.20
2016,08,19,18,00,29.20
2016,08,19,18,02,29.20
2016,08,19,18,03,29.20
2016,08,19,18,04,29.20
2016,08,19,18,05,29.20
2016,08,19,18,06,29.20
2016,08,19,18,07,29.20
2016,08,19,18,09,29.30
2016,08,19,18,10,29.30
2016,08,19,18,11,29.30
2016,08,19,18,12,29.30
2016,08,19,18,13,29.30
2016,08,19,18,14,29.30
2016,08,19,18,15,29.30
2016,08,19,18,16,29.30
2016,08,19,18,17,29.30
2016,08,19,18,18,29.30
2016,08,19,18,19,29.30
2016,08,19,18,20,29.30
2016,08,19,18,21,29.30
2016,08,19,18,22,29.30
2016,08,19,18,23,29.30
2016,08,19,18,24,29.20
2016,08,19,18,26,29.10
2016,08,19,18,27,29.10
2016,08,19,18,28,29.00
2016,08,19,18,29,29.00
2016,08,19,18,31,28.90
2016,08,19,18,32,28.80
2016,08,19,18,33,28.80
2016,08,19,18,34,28.70
2016,08,19,18,35,28.70
2016,08,19,18,36,28.60
2016,08,19,18,38,28.50
2016,08,19,18,39,28.50
2016,08,19,18,40,28.40
2016,08,19,18,41,28.40
2016,08,19,18,43,28.30
2016,08,19,18,44,28.30
2016,08,19,18,45,28.20
2016,08,19,18,46,28.20
2016,08,19,18,47,28.20
2016,08,19,18,48,28.10
2016,08,19,18,50,28.10
2016,08,19,18,51,28.10
2016,08,19,18,52,28.10
2016,08,19,18,53,28.10
2016,08,19,18,55,28.20
2016,08,19,18,56,28.20
2016,08,19,18,57,28.20
2016,08,19,18,58,28.20
2016,08,19,19,00,28.30
2016,08,19,19,01,28.30
2016,08,19,19,02,28.30
2016,08,19,19,03,28.30
2016,08,19,19,05,28.30
2016,08,19,19,06,28.30
2016,08,19,19,07,28.30
2016,08,19,19,08,28.30
2016,08,19,19,09,28.30
2016,08,19,19,10,28.30
2016,08,19,19,12,28.30
2016,08,19,19,13,28.30
2016,08,19,19,14,28.30
2016,08,19,19,15,28.30
2016,08,19,19,16,28.20
2016,08,19,19,17,28.20
2016,08,19,19,19,28.10
2016,08,19,19,20,28.10
2016,08,19,19,21,27.90
2016,08,19,19,22,27.90
2016,08,19,19,23,27.80
2016,08,19,19,24,27.80
2016,08,19,19,25,27.70